STARLINK-31497

Last updated on Fri Sep 20 2024 00:02:03 GMT+0000 (Coordinated Universal Time)

1 60592U 24150K 24263.42333865 .00003894 00000+0 10733-3 0 9995 2 60592 53.1588 280.2649 0002416 82.1051 278.0228 15.39613631 5906
UTC large
Height (km)
Speed (km/s)
/
Latitude / Longitude
Inclination (degrees)
Orbital Period (minutes)
Azimuth
Elevation
Range (km)
Doppler Factor

Next 0 passes for location: London (51.5072 / 0.1276)

Sorry there are no passes over London.